#timestamp,LO_Frequency,Hit,StdDev 
1588042815.5,286046998.3,N
1588042835.4,286046999.4,N
1588042855.2,286046998.2,N
1588042875.0,286046995.6,N
1588042875.9,286046995.6,N
1588042895.8,286046998.4,N
1588042915.6,286046997.6,N
1588042935.5,286046997.9,N
1588042955.3,286046995.4,N
1588042975.1,286046995.3,N
1588042995.9,286046995.4,N
1588043015.7,286046996.5,N
1588043035.5,286046999.5,N
1588043055.4,286047000.0,N
1588043075.2,286047004.0,N
1588043095.1,286047005.5,N
1588043096.0,286047005.5,N
1588043115.8,286047005.5,N
1588043135.6,286047008.8,N
1588043155.5,286047006.1,N
1588043175.3,286047006.7,N
1588043195.1,286047006.2,N
1588043215.9,286047006.1,N
1588043235.7,286047009.1,N
1588043255.6,286047007.7,N
1588043275.4,286047007.7,N
1588043295.2,286047009.8,N
1588043315.1,286047011.7,N
1588043316.0,286047011.7,N
1588043335.8,286047008.1,N
1588043355.6,286047008.2,N
1588043375.5,286047009.5,N
1588043395.3,286047008.2,N
1588043415.2,286047008.7,N
1588043435.9,286047008.7,N
1588043455.7,286047006.4,N
1588043475.6,286047007.3,N
1588043495.4,286047005.1,N
1588043515.2,286047001.9,N
1588043535.1,286046996.7,N
1588043536.0,286046996.7,N
1588043555.8,286046997.3,N
1588043575.7,286046996.1,N
1588043595.5,286046993.6,N
1588043615.3,286046994.9,N
1588043635.2,286046997.6,N
1588043655.0,286046997.7,N
1588043655.9,286046997.7,N
1588043675.8,286046999.5,N
1588043695.6,286047000.8,N
1588043715.4,286047004.1,N
1588043735.3,286047004.0,N
1588043755.1,286047007.2,N
1588043775.8,286047004.6,N
1588043795.7,286047005.5,N
1588043815.5,286047004.5,N
1588043835.4,286047009.2,N
1588043855.2,286047007.7,N
1588043875.0,286047012.4,N
1588043875.9,286047012.4,N
1588043895.8,286047011.2,N
1588043915.6,286047012.9,N
1588043935.5,286047014.9,N
1588043955.3,286047014.2,N
1588043975.1,286047018.1,N
1588043995.9,286047018.6,N
1588044015.7,286047017.5,N
1588044035.5,286047019.4,N
1588044055.4,286047019.5,N
1588044075.2,286047020.0,N
1588044095.0,286047020.4,N
1588044096.0,286047020.4,N
1588044115.8,286047020.2,N
1588044135.6,286047019.5,N
1588044155.5,286047019.9,N
1588044175.3,286047021.0,N
1588044195.1,286047020.5,N
1588044215.9,286047023.4,Y
1588044235.7,286047008.3,P
1588044255.6,286047009.0,P
1588044275.4,286047006.2,P
1588044295.4,286047008.5,Y
1588044315.3,286047000.1,P
1588044335.1,286047001.9,N
1588044355.9,286047001.7,N
1588044375.7,286047001.5,N
1588044395.5,286047003.1,N
1588044415.4,286047003.0,N
1588044435.2,286047004.7,N
1588044455.0,286047006.7,N
1588044455.9,286047006.7,N
1588044475.8,286047005.3,N
1588044495.6,286047005.0,N
1588044515.5,286047007.0,N
1588044535.3,286047008.7,Y
1588044555.1,286047005.3,P
1588044575.9,286047004.6,P
1588044595.7,286047007.4,P
1588044615.6,286047004.9,Y
1588044635.4,286046998.5,P
1588044655.2,286046998.4,N
1588044675.1,286046998.7,N
1588044676.0,286046998.7,N
1588044695.8,286046999.4,N
1588044715.7,286047000.1,N
1588044735.5,286047002.7,N
1588044755.3,286047000.0,N
1588044775.2,286047002.0,N
1588044795.0,286047002.3,N
1588044795.9,286047002.3,N
1588044815.8,286047003.7,N
1588044835.6,286047004.1,N
1588044855.4,286047001.4,N
1588044875.3,286047004.0,N
1588044895.1,286047004.2,N
1588044915.8,286047002.3,N
1588044935.7,286047002.4,N
1588044955.5,286047005.8,N
1588044975.4,286047004.0,N
1588044995.2,286047003.9,N
1588045015.0,286047002.3,N
1588045015.9,286047002.3,N
1588045035.8,286047000.5,N
1588045055.6,286046999.7,N
1588045075.5,286047001.8,N
1588045095.3,286047004.2,N
1588045115.1,286047005.7,N
1588045135.9,286047003.2,N
1588045155.7,286047005.7,N
1588045175.5,286047006.7,Y
1588045195.4,286047008.4,P
1588045215.2,286047010.1,P
1588045235.1,286047012.4,P
1588045236.0,286047012.4,Y
1588045255.8,286047001.5,P
1588045275.6,286047003.7,N
1588045295.5,286047005.2,N
1588045315.3,286047004.6,N
1588045335.1,286047005.0,N
1588045355.9,286047006.3,Y
1588045375.7,286047003.2,P
1588045395.6,286047005.3,P
1588045415.4,286047004.6,P
1588045435.2,286047003.7,Y
1588045455.1,286046995.8,P
1588045456.0,286046995.8,N
1588045475.8,286046997.8,N
1588045495.7,286046995.4,N
1588045515.5,286046996.1,N
1588045535.3,286046994.4,N
1588045555.2,286046994.1,N
1588045575.0,286046994.2,N
1588045575.9,286046994.2,N
1588045595.7,286046996.0,N
1588045615.6,286046993.9,N
1588045665.5,286046998.4,E
1588045675.4,286047000.7,N
1588045695.2,286046999.8,P
1588045715.0,286047001.8,P
1588045715.9,286047001.8,N
1588045735.8,286047005.9,Y
1588045755.6,286047000.2,P
1588045775.5,286047001.0,N
1588045795.3,286046999.8,N
1588045815.1,286047002.1,Y
1588045835.9,286047003.8,P
1588045855.7,286047001.6,N
1588045875.6,286047001.6,N
1588045895.4,286047002.1,N
1588045915.2,286047003.5,Y
1588045935.1,286047003.7,P
1588045936.0,286047003.7,P
1588045955.8,286047003.9,P
1588045975.7,286047001.5,N
1588045995.5,286047002.2,N
1588046015.3,286047002.0,N
1588046035.2,286047001.7,N
1588046055.0,286047000.5,N
1588046055.9,286047000.5,N
1588046075.7,286047000.1,N
1588046095.6,286047000.5,N
1588046115.4,286047000.3,N
1588046135.3,286046999.6,N
1588046155.1,286046999.1,N
1588046156.0,286046999.1,N
1588046175.8,286046999.1,N
1588046195.7,286047000.9,N
1588046215.5,286046998.7,N
1588046235.3,286046999.0,N
1588046255.2,286047000.8,N
1588046275.0,286047000.0,N
1588046275.9,286047000.0,N
1588046295.8,286047004.2,N
1588046315.6,286047004.3,N
1588046335.4,286047005.1,N
1588046355.3,286047007.4,Y
1588046375.1,286047004.6,P
1588046395.8,286047004.8,N
